Regional Weather Roundup
Issued by NWS

Home | Current Version | Previous Version | Graphics & Text | Print | Product List | Glossary On
Versions: 1 2 3 4 5 6 7 8 9 10 11 12 13 14 15 16 17 18 19 20 21 22 23 24 25 26 27 28 29 30 31 32 33 34 35 36 37 38 39 40 41 42 43 44 45 46 47 48 49 50
000
ASUS43 KDMX 230401
RWRIA

WEATHER ROUNDUP FOR IOWA
NATIONAL WEATHER SERVICE DES MOINES IA
1100 PM CDT SAT JUL 22 2017

NOTE: "FAIR" INDICATES FEW OR NO CLOUDS BELOW 12,000 FEET WITH NO
SIGNIFICANT WEATHER AND/OR OBSTRUCTIONS TO VISIBILITY.

* - THESE STATIONS ARE NOT NWS STATIONS...THUS NOT UNDER NWS
QUALITY CONTROL.  THEY ALSO DO NOT REPORT WEATHER SUCH
AS PRECIPITATION OR FOG.

IAZ001>003-012>014-020>022-031>034-043>046-230500-
   NORTHWEST IOWA

CITY           SKY/WX    TMP DP  RH WIND       PRES   REMARKS
CARROLL *      CLOUDY    73  73 100 NW6       29.90F FOG
CHEROKEE *     CLEAR     68  68 100 CALM      29.92S
DENISON *      CLEAR     73  73 100 CALM      29.92F
ORANGE CITY *  CLEAR     72  66  83 CALM      29.94R
SHELDON *      CLEAR     66  64  94 CALM      29.91S
SIOUX CITY     CLEAR     69  69 100 CALM      29.92S
SPENCER        CLEAR     68  66  93 W5        29.91S
STORM LAKE *   CLEAR     72  68  88 W7        29.94S
$$

IAZ055>058-069>071-079>083-090>094-230500-
   SOUTHWEST IOWA

CITY           SKY/WX    TMP DP  RH WIND       PRES   REMARKS
ATLANTIC *     CLOUDY    75  75 100 CALM      29.92S
AUDUBON *      CLOUDY    75  72  88 SW3       29.93R
CLARINDA *       N/A     79  79 100 N7        29.91F HX  83
COUNCIL BLFS * CLOUDY    75  75 100 SW6       29.93R
CRESTON *      CLOUDY    79  73  83 N7        29.91F HX  82
HARLAN  *      CLEAR     73  73 100 NW3       29.95F
LAMONI         CLOUDY    78  73  84 N5        29.90R HX  81
RED OAK *      CLOUDY    79  75  89 CALM      29.89F HX  82
SHENANDOAH *   MOCLDY    79  77  94 CALM      29.90R HX  83
$$

IAZ047>049-059>061-072>074-084-230500-
   CENTRAL IOWA

CITY           SKY/WX    TMP DP  RH WIND       PRES   REMARKS
AMES           CLOUDY    76  75  97 NW5       29.87F
ANKENY *       CLOUDY    79  75  89 NW5       29.88S HX  82
BOONE *        MOCLDY    77  73  88 NW8       29.88F
CHARITON *     CLOUDY    77  73  88 NW6       29.88F
DES MOINES     CLOUDY    80  74  81 W3        29.87S HX  85
GRINNELL*      CLOUDY    75  73  93 CALM      29.88S
KNOXVILLE *    CLOUDY    79  73  83 NW5       29.86S HX  82
MARSHALLTOWN   CLOUDY    75  74  96 W3        29.87S
NEWTON *       CLOUDY    75  73  94 W5        29.88S
PELLA *          N/A     76  73  90 CALM      29.87S
$$

IAZ004>006-015-016-023>025-035-036-230500-
   NORTH CENTRAL IOWA

CITY           SKY/WX    TMP DP  RH WIND       PRES   REMARKS
ALGONA *       CLEAR     70  70 100 S5        29.90F
ESTHERVILLE    CLEAR     70  68  93 NW5       29.89F
FORT DODGE *   CLEAR     73  68  83 NW5       29.91S
MASON CITY     CLEAR     72  70  93 W8        29.91R
FOREST CITY *    N/A     72  70  94 CALM      29.89F
WEBSTER CITY * PTCLDY    73  72  94 NW7       29.88S
IOWA FALLS *     N/A     76  73  91 W5        29.90S
$$

IAZ007>011-017>019-026>030-037>042-050>054-066-230500-
   NORTHEAST IOWA

CITY           SKY/WX    TMP DP  RH WIND       PRES   REMARKS
CEDAR RAPIDS   CLOUDY    74  74 100 NW3       29.84S
CHARLES CITY * CLEAR     73  73 100 W6        29.88S
DECORAH *      PTCLDY    75  73  94 CALM      29.85S
DUBUQUE        CLOUDY    75  74  96 CALM      29.85S
MONTICELLO *   CLOUDY    75  73  94 NW5       29.83F
OELWEIN *        N/A    N/A N/A N/A MISG        N/A
WATERLOO       MOCLDY    74  71  91 CALM      29.85S
$$

IAZ064-065-067-068-078-230500-
   EAST CENTRAL IOWA

CITY           SKY/WX    TMP DP  RH WIND       PRES   REMARKS
DAVENPORT      PTCLDY    75  74  96 W3        29.85S
IOWA CITY      PTCLDY    79  74  84 NW6       29.85S HX  82
MUSCATINE *    CLOUDY    77  75  94 W6        29.83F
QUAD CITIES    CLEAR     76  73  91 S3        29.82R
$$

IAZ062-063-075>077-085>089-095>099-230500-
   SOUTHEAST IOWA

CITY           SKY/WX    TMP DP  RH WIND       PRES   REMARKS
BURLINGTON     MOCLDY    79  77  94 N5        29.83F HX  83
FAIRFIELD *    CLOUDY    75  72  88 CALM      29.85S
FORT MADISON * MOCLDY    79  77  94 N3        29.85S HX  83
KEOKUK *       CLOUDY    81  79  94 N5        29.83S HX  89
OSKALOOSA *      N/A     74  72  91 NW3       29.86F
OTTUMWA        CLOUDY    75  73  93 NW7       29.85F
$$

ABBREVIATIONS USED IN REMARKS
   TC - TEMPERATURES IN CELSIUS
  WCI - WIND CHILL INDEX
   HX - HEAT INDEX
  VSB - VISIBILITY
$$





USA.gov is the U.S. government's official web portal to all federal, state and local government web resources and services.